Location: Newark
(41.9364°N, 2.8061°E)
Time: 16:42:40
(UTC+00:00)

Vanguard 2 Rocket - Visible Passes

Search period start: 19 February 2020 00:00
Search period end: 29 February 2020 00:00
Orbit: 554 x 3327 km, 32.9° (Epoch: 19 February)

Date Brightness Start Highest point End Pass type
(mag) Time Alt. Az. Time Alt. Az. Time Alt. Az.
19 Feb 9.4 18:55:46 10° SSW 19:11:08 34° SSE 19:17:11 25° ESE visible
19 Feb 9.2 21:11:41 10° WSW 21:23:00 42° SSW 21:23:00 42° SSW visible
20 Feb 9.9 17:55:12 10° SSW 18:10:09 29° SSE 18:21:11 11° E visible
20 Feb 8.9 20:09:39 10° SW 20:25:51 47° SSE 20:27:00 46° SSE visible
20 Feb 9.9 22:27:27 10° WSW 22:32:50 24° WSW 22:32:50 24° WSW visible
21 Feb 9.2 19:07:57 10° SW 19:24:58 43° SSE 19:30:59 30° ESE visible
21 Feb 9.2 21:25:07 10° WSW 21:36:48 45° SW 21:36:48 45° SW visible
22 Feb 9.7 18:06:47 10° SSW 18:23:49 38° SSE 18:34:56 14° E visible
22 Feb 8.8 20:22:49 10° WSW 20:39:46 54° S 20:40:45 53° SSE visible
22 Feb 10.0 22:41:15 10° W 22:46:34 24° WSW 22:46:34 24° WSW visible
23 Feb 9.1 19:20:45 10° SW 19:38:47 51° SSE 19:44:40 35° ESE visible
23 Feb 9.2 21:38:46 10° WSW 21:50:28 45° SW 21:50:28 45° SW visible
24 Feb 9.6 18:19:09 10° SW 18:37:31 47° SSE 18:48:33 18° E visible
24 Feb 8.8 20:36:16 10° WSW 20:53:40 58° S 20:54:21 58° S visible
24 Feb 10.1 22:55:09 10° W 23:00:10 22° WSW 23:00:10 22° WSW visible
25 Feb 9.0 19:33:57 10° WSW 19:52:37 58° S 19:58:13 40° ESE visible
25 Feb 9.3 21:52:33 10° W 22:04:01 43° WSW 22:04:01 43° WSW visible
26 Feb 9.6 18:32:03 10° SW 18:51:14 54° SSE 19:02:03 21° E visible
26 Feb 8.8 20:49:56 10° W 21:07:31 59° S 21:07:51 59° S visible
26 Feb 10.2 23:09:11 10° W 23:13:39 20° W 23:13:39 20° W visible
27 Feb 9.9 17:30:43 10° SW 17:49:39 49° SSE 18:04:46 10° E visible
27 Feb 9.0 19:47:28 10° WSW 20:06:27 61° S 20:11:40 44° SE visible
27 Feb 9.5 22:06:26 10° W 22:17:28 39° WSW 22:17:28 39° WSW visible
28 Feb 9.5 18:45:21 10° WSW 19:05:00 60° S 19:15:27 24° ESE visible
28 Feb 9.0 21:03:43 10° W 21:21:16 56° SSW 21:21:16 56° SSW visible
28 Feb 10.3 23:23:28 10° W 23:27:04 17° W 23:27:04 17° W visible
